Flag for Germany Weather past 2 weeks in Ahrensburg, Schleswig-Holstein, Germany

Now
37 °F

Sprinkles. Partly sunny.


Feels Like: 37 °F
Forecast: 35 / 40 °F
Wind: 2 mph from North

Location: Hamburg-Fuhlsbuettel

Current Time: Jan 25, 2015 at 3:19:21 PM

Latest Report: Jan 25, 2015 at 2:50 PM


Visibility: 6 mi

Pressure: 30.24 "Hg

Humidity: 100%

Dew point: 37 °F

Location of AhrensburgLocation

Historic Weather in Ahrensburg — Graph

°F

Ahrensburg temperature yesterday

Maximum temperature yesterday: 34 °F (at 4:20 PM)
Minimum temperature yesterday: 28 °F (at 12:20 AM)
Average temperature yesterday: 31 °F

Past Weeks' High & Low Weather Summary

 TemperatureHumidityPressure
High50 °F (Jan 10, 2:20 PM)100% (Jan 12, 10:50 PM)30.30 "Hg (Jan 12, 10:50 PM)
Low25 °F (Jan 21, 5:50 AM)61% (Jan 10, 6:50 PM)29.33 "Hg (Jan 15, 6:50 PM)
Average37 °F89%29.85 "Hg
* Reported Jan 10 2:20 PM — Jan 25 2:20 PM, Ahrensburg, Weather by CustomWeather, © 2014

Note: Actual official high and low records may vary slightly from our data, if they occured in-between our weather recording intervals... More about our weather records

Advertising

Ahrensburg weather history for previous 24 hours

 ConditionsComfort  
Time TempWeatherWind HumidityBarometerVisibility
2:20 PM
Jan 25
37 °FSprinkles. Partly sunny.3 mph93%30.24 "Hg5 mi
1:50 PM37 °FPartly sunny.7 mph93%30.24 "Hg4 mi
1:20 PM37 °FBroken clouds.5 mph93%30.24 "HgN/A
12:50 PM37 °FBroken clouds.6 mph93%30.24 "HgN/A
12:20 PM37 °FScattered clouds.5 mph93%30.27 "HgN/A
11:50 AM37 °FScattered clouds.9 mph93%30.27 "HgN/A
11:20 AM37 °FScattered clouds.2 mph93%30.27 "HgN/A
10:50 AM36 °FScattered clouds.5 mph93%30.27 "HgN/A
10:20 AM36 °FScattered clouds.3 mph93%30.27 "HgN/A
9:50 AM34 °FScattered clouds.6 mph100%30.27 "HgN/A
9:20 AM30 °FFog.3 mph100%30.24 "HgN/A
8:50 AM28 °FFog.2 mph100%30.24 "HgN/A
8:20 AM28 °FFog.3 mph100%30.24 "HgN/A
7:50 AM32 °FPassing clouds.No wind100%30.24 "HgN/A
7:20 AM32 °FPassing clouds.2 mph100%30.21 "HgN/A
6:50 AM32 °FPassing clouds.6 mph100%30.21 "HgN/A
6:20 AM32 °FPassing clouds.7 mph100%30.21 "HgN/A
5:50 AM34 °FSnow flurries. Passing clouds.8 mph93%30.21 "HgN/A
5:20 AM34 °FPassing clouds.7 mph93%30.21 "HgN/A
4:20 AM32 °FPassing clouds.5 mph100%30.18 "HgN/A
3:50 AM32 °FPassing clouds.3 mph100%30.18 "HgN/A
3:20 AM32 °FPassing clouds.7 mph100%30.18 "HgN/A
2:50 AM32 °FSnow flurries. Passing clouds.2 mph100%30.18 "Hg5 mi
2:20 AM32 °FPassing clouds.3 mph100%30.18 "HgN/A
1:50 AM32 °FPassing clouds.8 mph100%30.18 "HgN/A
1:20 AM32 °FPassing clouds.6 mph100%30.18 "HgN/A
12:50 AM32 °FPassing clouds.6 mph100%30.15 "HgN/A
12:20 AM32 °FClear.6 mph100%30.15 "Hg10 mi
11:50 PM
Jan 24
32 °FPassing clouds.6 mph100%30.15 "HgN/A
10:50 PM32 °FPassing clouds.1 mph100%30.15 "HgN/A
10:20 PM32 °FClear.2 mph100%30.15 "Hg10 mi
9:50 PM32 °FPassing clouds.3 mph100%30.12 "HgN/A
9:20 PM32 °FClear.2 mph100%30.12 "Hg10 mi
8:50 PM32 °FPassing clouds.3 mph100%30.12 "HgN/A
8:20 PM32 °FPassing clouds.3 mph100%30.12 "HgN/A
7:50 PM32 °FFog.2 mph100%30.09 "Hg4 mi
7:20 PM32 °FPassing clouds.3 mph100%30.09 "Hg4 mi
6:50 PM32 °FIce fog.3 mph100%30.07 "Hg4 mi
6:20 PM34 °FFog.5 mph100%30.07 "Hg2 mi
5:50 PM32 °FIce fog.3 mph100%30.04 "Hg2 mi
5:20 PM32 °FIce fog.2 mph100%30.04 "Hg2 mi
4:50 PM34 °FFog.3 mph100%30.04 "Hg2 mi
4:20 PM34 °FFog.3 mph100%30.01 "Hg2 mi
3:50 PM32 °FLight snow. Partly sunny.5 mph100%30.01 "Hg2 mi
3:20 PM32 °FLight snow. Broken clouds.5 mph100%30.01 "Hg2 mi
Weather by CustomWeather, © 2014

See weather overviewHow to use our weather pages